TimeCST,TemperatureF,Dew PointF,Humidity,Sea Level PressureIn,VisibilityMPH,Wind Direction,Wind SpeedMPH,Gust SpeedMPH,PrecipitationIn,Events,Conditions,WindDirDegrees,DateUTC
12:54 AM,17.1,12.0,81,30.09,8.0,NE,4.6,-,N/A,,Overcast,40,2013-12-13 06:54:00
1:54 AM,18.0,12.9,81,30.14,8.0,ESE,3.5,-,N/A,,Overcast,120,2013-12-13 07:54:00
2:54 AM,17.1,12.0,81,30.15,7.0,Calm,Calm,-,N/A,,Overcast,0,2013-12-13 08:54:00
3:54 AM,15.1,10.9,84,30.13,7.0,NE,6.9,-,N/A,,Partly Cloudy,40,2013-12-13 09:54:00
4:54 AM,12.9,10.0,88,30.14,6.0,East,5.8,-,N/A,,Mostly Cloudy,100,2013-12-13 10:54:00
5:54 AM,16.0,10.9,81,30.15,7.0,East,8.1,-,N/A,,Clear,80,2013-12-13 11:54:00
6:54 AM,16.0,10.9,81,30.15,8.0,ENE,11.5,-,N/A,,Clear,70,2013-12-13 12:54:00
7:54 AM,16.0,10.9,81,30.17,6.0,ENE,10.4,-,N/A,,Haze,70,2013-12-13 13:54:00
8:54 AM,17.1,10.9,77,30.19,6.0,ENE,12.7,-,N/A,,Haze,70,2013-12-13 14:54:00
9:54 AM,17.1,10.0,74,30.19,7.0,ENE,13.8,-,N/A,,Clear,70,2013-12-13 15:54:00
10:54 AM,18.0,10.0,71,30.18,7.0,ENE,13.8,-,N/A,,Clear,70,2013-12-13 16:54:00
11:54 AM,19.0,10.9,71,30.17,9.0,ENE,12.7,-,N/A,,Clear,70,2013-12-13 17:54:00
12:54 PM,19.9,10.0,65,30.16,9.0,ENE,15.0,-,N/A,,Clear,60,2013-12-13 18:54:00
1:54 PM,19.9,10.9,68,30.14,10.0,ENE,16.1,-,N/A,,Clear,60,2013-12-13 19:54:00
2:54 PM,19.9,10.0,65,30.15,10.0,ENE,16.1,-,N/A,,Clear,60,2013-12-13 20:54:00
3:54 PM,19.0,9.0,65,30.16,10.0,NE,13.8,-,N/A,,Clear,50,2013-12-13 21:54:00
4:54 PM,17.1,8.1,68,30.18,10.0,NE,16.1,-,N/A,,Clear,40,2013-12-13 22:54:00
5:54 PM,16.0,8.1,71,30.20,10.0,NE,15.0,-,N/A,,Clear,40,2013-12-13 23:54:00
6:54 PM,16.0,8.1,71,30.22,10.0,NE,13.8,-,N/A,,Clear,50,2013-12-14 00:54:00
7:54 PM,16.0,8.1,71,30.23,10.0,ENE,15.0,-,N/A,,Clear,60,2013-12-14 01:54:00
8:54 PM,15.1,7.0,70,30.23,10.0,NE,17.3,-,N/A,,Mostly Cloudy,50,2013-12-14 02:54:00
9:03 PM,15.1,7.0,70,30.15,10.0,ENE,17.3,-,N/A,,Mostly Cloudy,60,2013-12-14 03:03:00
9:54 PM,15.1,7.0,70,30.24,10.0,NE,16.1,-,N/A,,Overcast,50,2013-12-14 03:54:00
10:54 PM,15.1,8.1,74,30.25,10.0,NE,10.4,-,N/A,,Overcast,40,2013-12-14 04:54:00
11:17 PM,15.1,8.1,74,30.17,10.0,NE,9.2,-,N/A,,Overcast,50,2013-12-14 05:17:00
11:54 PM,15.1,8.1,74,30.25,10.0,ENE,11.5,-,N/A,,Overcast,60,2013-12-14 05:54:00